| time (UTC) | temp F | wind direction | speed knots | gust knots | rain 1hr in | rain 24hr in | rain mn in | humidity % | barometer mb |
| 20260508074551 | 60 | 302 | 2.6 | 7.0 | 0.00 | 0.34 | 0.34 | 85 | 1004.1 |
| 20260508073106 | 60 | 315 | 2.6 | 8.7 | 0.01 | 0.34 | 0.34 | 86 | 1003.8 |
| 20260508071511 | 60 | 296 | 4.3 | 8.7 | 0.02 | 0.34 | 0.34 | 88 | 1003.5 |
| 20260508070045 | 60 | 271 | 4.3 | 15.6 | 0.05 | 0.34 | 0.34 | 86 | 1003.5 |
| 20260508064517 | 61 | 286 | 6.1 | 20.0 | 0.09 | 0.34 | 0.34 | 86 | 1002.9 |
| 20260508063023 | 63 | 269 | 7.0 | 24.3 | 0.13 | 0.33 | 0.33 | 88 | 1004.3 |
| 20260508061541 | 63 | 286 | 7.8 | 20.0 | 0.18 | 0.31 | 0.31 | 88 | 1003.0 |
| 20260508060053 | 66 | 286 | 7.0 | 20.9 | 0.24 | 0.28 | 0.28 | 85 | 1003.1 |
| 20260508054523 | 67 | 300 | 0.9 | 5.2 | 0.18 | 0.24 | 0.24 | 89 | 1002.8 |
| 20260508053112 | 68 | 336 | 4.3 | 11.3 | 0.14 | 0.20 | 0.20 | 87 | 1002.8 |
| 20260508051509 | 69 | 332 | 1.7 | 6.1 | 0.04 | 0.09 | 0.12 | 85 | 1002.2 |
| 20260508050040 | 69 | 333 | 1.7 | 5.2 | 0.00 | 0.06 | 0.06 | 82 | 1001.4 |
| 20260508044501 | 69 | 9 | 0.0 | 2.6 | 0.02 | 0.06 | 0.06 | 85 | 1001.4 |
| 20260508043037 | 69 | 17 | 0.0 | 4.3 | 0.02 | 0.06 | 0.06 | 84 | 1001.4 |
| 20260508041612 | 68 | 345 | 0.9 | 4.3 | 0.02 | 0.06 | 0.06 | 84 | 1001.4 |
| 20260508040005 | 68 | 340 | 0.0 | 7.0 | 0.06 | 0.06 | 0.06 | 83 | 1001.7 |
| 20260508034510 | 69 | 302 | 1.7 | 10.4 | 0.04 | 0.04 | 0.04 | 80 | 1002.0 |
| 20260508033030 | 69 | 332 | 2.6 | 7.8 | 0.04 | 0.04 | 0.04 | 80 | 1002.0 |
| 20260508031601 | 70 | 303 | 2.6 | 13.9 | 0.04 | 0.04 | 0.04 | 79 | 1002.2 |
| 20260508030022 | 75 | 289 | 6.1 | 13.9 | 0.00 | 0.00 | 0.00 | 63 | 1002.5 |
| 20260508024549 | 78 | 235 | 9.6 | 22.6 | 0.00 | 0.00 | 0.00 | 59 | 1002.4 |
| 20260508023001 | 83 | 290 | 4.3 | 11.3 | 0.00 | 0.00 | 0.00 | 50 | 1000.4 |
| 20260508021537 | 84 | 360 | 4.3 | 13.9 | 0.00 | 0.00 | 0.00 | 49 | 999.7 |
| 20260508020054 | 84 | 17 | 5.2 | 13.0 | 0.00 | 0.00 | 0.00 | 48 | 999.5 |
| 20260508014601 | 84 | 13 | 7.0 | 17.4 | 0.00 | 0.00 | 0.00 | 48 | 999.6 |
| 20260508013021 | 84 | 5 | 7.8 | 15.6 | 0.00 | 0.00 | 0.00 | 48 | 1000.0 |
| 20260508011543 | 81 | 348 | 0.9 | 7.0 | 0.00 | 0.00 | 0.00 | 53 | 999.9 |
| 20260508010050 | 80 | 102 | 0.9 | 6.1 | 0.00 | 0.00 | 0.00 | 54 | 999.9 |
| 20260508004515 | 80 | 69 | 2.6 | 5.2 | 0.00 | 0.00 | 0.00 | 55 | 1000.0 |
| 20260508003043 | 80 | 44 | 0.9 | 3.5 | 0.00 | 0.00 | 0.00 | 55 | 1000.0 |
| 20260508001520 | 81 | 360 | 1.7 | 7.0 | 0.00 | 0.00 | 0.00 | 54 | 1000.0 |
| 20260508000032 | 81 | 34 | 1.7 | 8.7 | 0.00 | 0.00 | 0.00 | 54 | 999.9 |
| 20260507234600 | 79 | 65 | 0.0 | 3.5 | 0.00 | 0.00 | 0.00 | 59 | 999.9 |
| 20260507233022 | 79 | 66 | 0.0 | 2.6 | 0.00 | 0.00 | 0.00 | 60 | 1000.2 |
| 20260507231540 | 77 | 66 | 0.0 | 2.6 | 0.00 | 0.00 | 0.00 | 63 | 1000.3 |
| 20260507230059 | 78 | 92 | 0.0 | 3.5 | 0.00 | 0.00 | 0.00 | 62 | 1000.3 |
| 20260507224504 | 77 | 64 | 0.0 | 1.7 | 0.00 | 0.00 | 0.00 | 64 | 1000.3 |
| 20260507223008 | 78 | 84 | 0.0 | 0.0 | 0.00 | 0.00 | 0.00 | 62 | 1000.3 |
| 20260507221509 | 79 | 80 | 0.0 | 1.7 | 0.00 | 0.00 | 0.00 | 60 | 1000.5 |
| 20260507220040 | 81 | 69 | 0.0 | 1.7 | 0.00 | 0.00 | 0.00 | 56 | 1000.5 |
| 20260507214505 | 82 | 20 | 0.0 | 0.9 | 0.00 | 0.00 | 0.00 | 53 | 1000.6 |
| 20260507213034 | 84 | 331 | 0.9 | 3.5 | 0.00 | 0.00 | 0.00 | 50 | 1000.8 |
| 20260507211549 | 84 | 349 | 1.7 | 5.2 | 0.00 | 0.00 | 0.00 | 50 | 1000.7 |
| 20260507210006 | 85 | 349 | 1.7 | 7.0 | 0.00 | 0.00 | 0.00 | 49 | 1000.8 |
| 20260507204533 | 85 | 334 | 1.7 | 7.8 | 0.00 | 0.00 | 0.00 | 48 | 1000.8 |
| 20260507203054 | 85 | 345 | 1.7 | 5.2 | 0.00 | 0.00 | 0.00 | 48 | 1000.7 |
| 20260507201529 | 85 | 22 | 0.9 | 5.2 | 0.00 | 0.00 | 0.00 | 49 | 1000.4 |
| 20260507200049 | 85 | 350 | 0.9 | 4.3 | 0.00 | 0.00 | 0.00 | 49 | 1000.6 |
| 20260507194621 | 86 | 341 | 1.7 | 5.2 | 0.00 | 0.00 | 0.00 | 47 | 1000.6 |
| 20260507193029 | 86 | 340 | 2.6 | 7.8 | 0.00 | 0.00 | 0.00 | 47 | 1000.9 |
| 20260507191600 | 86 | 355 | 2.6 | 10.4 | 0.00 | 0.00 | 0.00 | 47 | 1001.0 |
| 20260507190010 | 86 | 348 | 1.7 | 7.0 | 0.00 | 0.00 | 0.00 | 47 | 1000.7 |
| 20260507184533 | 86 | 327 | 1.7 | 9.6 | 0.00 | 0.00 | 0.00 | 47 | 1000.8 |
| 20260507183047 | 87 | 319 | 2.6 | 8.7 | 0.00 | 0.00 | 0.00 | 47 | 1000.8 |
| 20260507181501 | 87 | 311 | 1.7 | 8.7 | 0.00 | 0.00 | 0.00 | 46 | 1000.6 |
| 20260507180036 | 88 | 313 | 3.5 | 7.0 | 0.00 | 0.00 | 0.00 | 48 | 1000.5 |
| 20260507174516 | 88 | 288 | 2.6 | 11.3 | 0.00 | 0.00 | 0.00 | 46 | 1000.6 |
| 20260507173035 | 88 | 305 | 7.8 | 16.5 | 0.00 | 0.00 | 0.00 | 45 | 1000.6 |
| 20260507171604 | 89 | 32 | 3.5 | 14.8 | 0.00 | 0.00 | 0.00 | 44 | 1000.6 |
| 20260507170009 | 88 | 360 | 7.0 | 17.4 | 0.00 | 0.00 | 0.00 | 44 | 1000.8 |
| 20260507164548 | 88 | 322 | 8.7 | 20.0 | 0.00 | 0.00 | 0.00 | 45 | 1001.1 |
| 20260507163059 | 88 | 344 | 6.1 | 13.0 | 0.00 | 0.00 | 0.00 | 45 | 1001.4 |
| 20260507161531 | 89 | 290 | 6.1 | 19.1 | 0.00 | 0.00 | 0.00 | 46 | 1001.9 |
| 20260507160033 | 89 | 349 | 9.6 | 19.1 | 0.00 | 0.00 | 0.00 | 46 | 1002.1 |
| 20260507154550 | 88 | 351 | 5.2 | 14.8 | 0.00 | 0.00 | 0.00 | 48 | 1002.3 |
| 20260507153002 | 88 | 302 | 7.0 | 14.8 | 0.00 | 0.00 | 0.00 | 48 | 1002.8 |
| 20260507151534 | 87 | 308 | 6.1 | 15.6 | 0.00 | 0.00 | 0.00 | 51 | 1003.1 |
| 20260507150059 | 87 | 23 | 6.1 | 14.8 | 0.00 | 0.00 | 0.00 | 50 | 1003.7 |
| 20260507144517 | 87 | 360 | 7.8 | 15.6 | 0.00 | 0.00 | 0.00 | 49 | 1003.9 |
| 20260507143025 | 87 | 320 | 7.8 | 14.8 | 0.00 | 0.00 | 0.00 | 50 | 1004.2 |
| 20260507141607 | 87 | 321 | 6.1 | 14.8 | 0.00 | 0.00 | 0.00 | 51 | 1004.8 |
| 20260507140055 | 85 | 0.0 | 0.0 | 0.00 | 0.00 | 0.00 | 54 | 1005.3 | |
| 20260507134517 | 85 | 1.7 | 7.8 | 0.00 | 0.00 | 0.00 | 58 | 1005.7 | |
| 20260507133036 | 82 | 0.0 | 0.0 | 0.00 | 0.00 | 0.00 | 62 | 1006.3 | |
| 20260507131559 | 82 | 0.0 | 0.0 | 0.00 | 0.00 | 0.00 | 63 | 1006.6 | |
| 20260507130030 | 82 | 0.0 | 0.0 | 0.00 | 0.00 | 0.00 | 63 | 1006.8 | |
| 20260507124551 | 81 | 0.0 | 0.0 | 0.00 | 0.00 | 0.00 | 66 | 1006.9 | |
| 20260507123007 | 80 | 0.0 | 0.0 | 0.00 | 0.00 | 0.00 | 68 | 1007.0 | |
| 20260507121541 | 78 | 0.0 | 0.0 | 0.00 | 0.00 | 0.00 | 77 | 1006.8 | |
| 20260507120044 | 76 | 0.0 | 0.0 | 0.00 | 0.00 | 0.00 | 81 | 1007.0 | |
| 20260507114544 | 76 | 144 | 0.0 | 0.9 | 0.00 | 0.00 | 0.00 | 77 | 1007.2 |
| 20260507113048 | 75 | 144 | 0.0 | 1.7 | 0.00 | 0.00 | 0.00 | 79 | 1006.9 |
| 20260507111503 | 74 | 144 | 0.0 | 1.7 | 0.00 | 0.00 | 0.00 | 80 | 1006.9 |
| 20260507110037 | 72 | 144 | 0.0 | 1.7 | 0.00 | 0.00 | 0.00 | 83 | 1006.7 |
| 20260507104559 | 71 | 144 | 0.0 | 1.7 | 0.00 | 0.00 | 0.00 | 83 | 1006.7 |
| 20260507103009 | 71 | 144 | 0.9 | 1.7 | 0.00 | 0.00 | 0.00 | 83 | 1006.9 |
| 20260507101548 | 70 | 103 | 0.9 | 1.7 | 0.00 | 0.00 | 0.00 | 83 | 1006.7 |
| 20260507100109 | 71 | 103 | 0.0 | 1.7 | 0.00 | 0.00 | 0.00 | 82 | 1006.8 |
| 20260507094526 | 71 | 102 | 0.9 | 1.7 | 0.00 | 0.00 | 0.00 | 81 | 1006.9 |
| 20260507093050 | 70 | 91 | 0.0 | 0.9 | 0.00 | 0.00 | 0.00 | 82 | 1006.7 |
| 20260507091527 | 71 | 91 | 0.9 | 0.9 | 0.00 | 0.00 | 0.00 | 81 | 1006.7 |
| 20260507090055 | 71 | 91 | 0.0 | 1.7 | 0.00 | 0.00 | 0.00 | 82 | 1006.7 |
| 20260507084512 | 70 | 90 | 0.0 | 1.7 | 0.00 | 0.00 | 0.00 | 82 | 1006.7 |
| 20260507083022 | 70 | 90 | 0.0 | 1.7 | 0.00 | 0.00 | 0.00 | 83 | 1006.7 |
| 20260507081544 | 71 | 90 | 0.0 | 1.7 | 0.00 | 0.00 | 0.00 | 83 | 1006.9 |
| 20260507080054 | 71 | 90 | 0.0 | 1.7 | 0.00 | 0.00 | 0.00 | 83 | 1007.0 |